Daviess Cnty AP, Washington,, IN

7:31 PM EDT on September 20, 2019 (GMT -0400)
Daviess County

Weather History for KDCY - July, 2019

Change the Weather History Date:

Saturday, July 13, 2019

  Actual Average (KLWV) Record (KLWV)
Temperature  
Mean Temperature 74 °F -  
Max Temperature 89 °F 84 °F 92 °F (1993)
Min Temperature 58 °F 64 °F 55 °F (2001)
Cooling Degree Days 8    
Growing Degree Days 24 (Base 50)    
Moisture  
Dew Point 61 °F    
Average Humidity 69    
Maximum Humidity 99    
Minimum Humidity 33    
Precipitation  
Precipitation 0.00 in - - ()
Sea Level Pressure  
Sea Level Pressure 30.03 in    
Wind  
Wind Speed 1 mph (WSW)    
Max Wind Speed 6 mph    
Max Gust Speed -    
Visibility 10 miles    
Events      
Averages and records for this station are not official NWS values.
T = Trace of Precipitation, MM = Missing Value Source: NWS Daily Summary

Daily Weather History Graph

Daily Weather History Graph

Search for Another Location

Airport or City:

Astronomy

Jul. 13, 2019 Rise Set
Actual Time 6:34 AM EDT 9:13 PM EDT
Civil Twilight 6:03 AM EDT 9:44 PM EDT
Nautical Twilight 5:24 AM EDT 10:23 PM EDT
Astronomical Twilight 4:40 AM EDT 11:07 PM EDT
Moon 6:36 PM EDT (7/13) 3:53 AM EDT (7/13)
Length of Visible Light 15h 41m
Length of Day
14h 39m
Waxing Gibbous, 90% of the Moon is Illuminated
Jul 13
Waxing Gibbous
Jul 16
Full
Jul 24
Last Quarter
Jul 31
New
Aug 7
First Quarter

Hourly Weather History & Observations

Time (EDT) Temp. Heat Index Dew Point Humidity Pressure Visibility Wind Dir Wind Speed Gust Speed Precip Events Conditions
12:15 AM 63.9 °F - 63.5 °F 99% 29.97 in 10.0 mi Calm Calm - N/A   Clear
12:35 AM 63.9 °F - 63.7 °F 99% 29.97 in 10.0 mi Calm Calm - N/A   Clear
12:55 AM 63.7 °F - 63.5 °F 99% 29.97 in 10.0 mi Calm Calm - N/A   Clear
1:15 AM 63.7 °F - 63.5 °F 99% 29.98 in 10.0 mi Calm Calm - N/A   Clear
1:35 AM 63.5 °F - 63.1 °F 99% 29.99 in 10.0 mi Calm Calm - N/A   Clear
1:55 AM 62.8 °F - 62.6 °F 99% 29.99 in 10.0 mi Calm Calm - N/A   Clear
2:15 AM 63.3 °F - 63.0 °F 99% 30.00 in 10.0 mi Calm Calm - N/A   Clear
2:35 AM 62.6 °F - 62.2 °F 99% 30.00 in 10.0 mi Calm Calm - N/A   Clear
2:55 AM 61.0 °F - 60.8 °F 99% 30.00 in 10.0 mi Calm Calm - N/A   Clear
3:15 AM 61.0 °F - 60.6 °F 99% 30.00 in 10.0 mi Calm Calm - N/A   Clear
3:35 AM 60.3 °F - 60.1 °F 99% 30.00 in 10.0 mi Calm Calm - N/A   Clear
3:55 AM 60.4 °F - 60.3 °F 99% 30.00 in 10.0 mi Calm Calm - N/A   Clear
4:15 AM 60.6 °F - 60.3 °F 99% 30.00 in 10.0 mi Calm Calm - N/A   Clear
4:35 AM 61.0 °F - 60.8 °F 99% 30.00 in 10.0 mi Calm Calm - N/A   Clear
4:55 AM 60.3 °F - 60.1 °F 99% 30.01 in 10.0 mi Calm Calm - N/A   Clear
5:15 AM 59.5 °F - 59.4 °F 99% 30.01 in 10.0 mi Calm Calm - N/A   Clear
5:35 AM 59.4 °F - 59.0 °F 99% 30.01 in 10.0 mi Calm Calm - N/A   Clear
5:55 AM 60.1 °F - 59.7 °F 99% 30.01 in 10.0 mi Calm Calm - N/A   Clear
6:15 AM 59.7 °F - 59.5 °F 99% 30.03 in 7.0 mi Calm Calm - N/A   Clear
6:35 AM 58.8 °F - 58.5 °F 99% 30.03 in 4.0 mi Calm Calm - N/A   Clear
6:55 AM 59.5 °F - 59.4 °F 99% 30.03 in 7.0 mi Calm Calm - N/A   Clear
7:15 AM 60.6 °F - 60.3 °F 99% 30.03 in 7.0 mi Calm Calm - N/A   Clear
7:35 AM 62.1 °F - 61.9 °F 99% 30.03 in 7.0 mi Calm Calm - N/A   Clear
7:55 AM 64.9 °F - 64.8 °F 99% 30.04 in 7.0 mi Calm Calm - N/A   Clear
8:15 AM 67.1 °F - 65.3 °F 94% 30.05 in 10.0 mi Calm Calm - N/A   Clear
8:35 AM 69.3 °F - 64.9 °F 86% 30.05 in 10.0 mi Calm Calm - N/A   Clear
8:55 AM 70.7 °F - 63.9 °F 79% 30.05 in 10.0 mi Calm Calm - N/A   Clear
9:15 AM 72.1 °F - 64.0 °F 76% 30.06 in 10.0 mi Calm Calm - N/A   Clear
9:35 AM 73.8 °F - 64.6 °F 73% 30.06 in 10.0 mi Calm Calm - N/A   Clear
9:55 AM 75.6 °F - 64.4 °F 68% 30.06 in 10.0 mi Calm Calm - N/A   Clear
10:15 AM 77.0 °F - 63.5 °F 63% 30.06 in 10.0 mi Calm Calm - N/A   Clear
10:35 AM 78.1 °F - 64.6 °F 63% 30.07 in 10.0 mi Calm Calm - N/A   Clear
10:55 AM 80.1 °F 81.4 °F 62.6 °F 55% 30.07 in 10.0 mi Calm Calm - N/A   Clear
11:15 AM 82.0 °F 82.0 °F 58.3 °F 44% 30.07 in 10.0 mi Calm Calm - N/A   Clear
11:35 AM 82.6 °F 82.6 °F 59.5 °F 45% 30.07 in 10.0 mi SE 4.6 mph - N/A   Clear
11:55 AM 83.1 °F 83.2 °F 59.7 °F 45% 30.07 in 10.0 mi South 4.6 mph - N/A   Clear
12:15 PM 83.1 °F 83.0 °F 59.4 °F 44% 30.07 in 10.0 mi South 3.5 mph - N/A   Clear
12:35 PM 83.8 °F 83.3 °F 57.7 °F 41% 30.07 in 10.0 mi South 3.5 mph - N/A   Clear
12:55 PM 84.4 °F 83.7 °F 57.6 °F 40% 30.06 in 10.0 mi Calm Calm - N/A   Clear
1:15 PM 84.2 °F 83.0 °F 55.6 °F 37% 30.06 in 10.0 mi Calm Calm - N/A   Clear
1:35 PM 84.9 °F 84.4 °F 58.5 °F 41% 30.06 in 10.0 mi South 3.5 mph - N/A   Clear
1:50 PM 85.8 °F 84.7 °F 56.7 °F 37% 30.06 in 10.0 mi South 4.6 mph - N/A   Clear
2:15 PM 86.2 °F 84.9 °F 56.5 °F 36% 30.06 in 10.0 mi SSE 4.6 mph - N/A   Clear
2:35 PM 87.1 °F 86.3 °F 58.8 °F 38% 30.06 in 10.0 mi NNW 3.5 mph - N/A   Clear
2:55 PM 87.3 °F 86.1 °F 57.6 °F 36% 30.05 in 10.0 mi WSW 3.5 mph - N/A   Clear
3:15 PM 88.2 °F 86.5 °F 55.4 °F 33% 30.04 in 10.0 mi Calm Calm - N/A   Clear
3:35 PM 88.0 °F 86.9 °F 57.7 °F 36% 30.05 in 10.0 mi WNW 3.5 mph - N/A   Clear
3:55 PM 88.0 °F 86.9 °F 57.9 °F 36% 30.05 in 10.0 mi Calm Calm - N/A   Clear
4:15 PM 88.7 °F 88.0 °F 59.2 °F 37% 30.04 in 10.0 mi WNW 5.8 mph - N/A   Clear
4:35 PM 88.7 °F 87.8 °F 58.3 °F 36% 30.04 in 10.0 mi NW 3.5 mph - N/A   Clear
4:55 PM 89.2 °F 87.9 °F 57.2 °F 34% 30.03 in 10.0 mi NNW 4.6 mph - N/A   Clear
5:15 PM 89.1 °F 88.0 °F 58.1 °F 35% 30.03 in 10.0 mi North 4.6 mph - N/A   Clear
5:35 PM 88.9 °F 88.3 °F 59.7 °F 37% 30.03 in 10.0 mi Calm Calm - N/A   Clear
5:55 PM 88.5 °F 88.1 °F 59.7 °F 38% 30.03 in 10.0 mi WNW 3.5 mph - N/A   Clear
6:15 PM 88.9 °F 88.3 °F 59.5 °F 37% 30.02 in 10.0 mi NW 4.6 mph - N/A   Clear
6:35 PM 88.3 °F 87.3 °F 58.5 °F 36% 30.02 in 10.0 mi NNW 3.5 mph - N/A   Clear
6:55 PM 88.7 °F 87.1 °F 56.5 °F 33% 30.02 in 10.0 mi NW 3.5 mph - N/A   Clear
7:15 PM 87.8 °F 86.7 °F 57.6 °F 36% 30.02 in 10.0 mi Calm Calm - N/A   Clear
7:35 PM 87.6 °F 87.4 °F 60.3 °F 40% 30.01 in 10.0 mi Calm Calm - N/A   Clear
7:55 PM 87.1 °F 86.7 °F 60.1 °F 40% 30.02 in 10.0 mi Calm Calm - N/A   Clear
8:15 PM 85.1 °F 87.4 °F 66.0 °F 53% 30.02 in 10.0 mi Calm Calm - N/A   Clear
8:35 PM 84.2 °F 86.6 °F 66.2 °F 55% 30.01 in 10.0 mi Calm Calm - N/A   Clear
8:55 PM 77.5 °F - 66.9 °F 70% 30.02 in 10.0 mi Calm Calm - N/A   Clear
9:15 PM 74.3 °F - 66.6 °F 77% 30.02 in 10.0 mi SW 3.5 mph - N/A   Clear
9:35 PM 72.7 °F - 66.2 °F 80% 30.03 in 10.0 mi Calm Calm - N/A   Clear
9:55 PM 72.3 °F - 64.9 °F 78% 30.03 in 10.0 mi Calm Calm - N/A   Clear
10:15 PM 70.3 °F - 65.3 °F 84% 30.04 in 10.0 mi South 4.6 mph - N/A   Clear
10:35 PM 70.3 °F - 65.5 °F 85% 30.05 in 10.0 mi Calm Calm - N/A   Clear
10:55 PM 70.5 °F - 66.0 °F 86% 30.06 in 10.0 mi Calm Calm - N/A   Clear
11:15 PM 70.0 °F - 65.3 °F 85% 30.06 in 10.0 mi Calm Calm - N/A   Clear
11:35 PM 68.2 °F - 65.3 °F 90% 30.06 in 10.0 mi Calm Calm - N/A   Clear
11:55 PM 67.5 °F - 67.1 °F 99% 30.07 in 10.0 mi Calm Calm - N/A   Clear